Location: Neuvy Saint Sepulchre
(46.5953°N, 1.8122°E)
Time: 16:30:39
(UTC+02:00)

ISS - Pass Details

Date: 08 May 2026
Orbit: 414 x 424 km, 51.6° (Epoch: 21 May)

Event Time Altitude Azimuth Distance (km) Brightness Sun altitude
Rises 05:41:22 0° 288° (WNW) 2,363 -0.3 -7.7°
Reaches altitude 10° 05:43:51 10° 270° (W) 1,498 -1.4 -7.4°
Maximum altitude 05:46:18 19° 223° (SW) 1,067 -2.3 -7.0°
Drops below altitude 10° 05:48:46 10° 176° (S) 1,495 -1.2 -6.7°
Sets 05:51:15 0° 158° (SSE) 2,356 -0.1 -6.3°
